Regional Weather Roundup
Issued by NWS Wakefield, VA

Home | Current Version | Previous Version | Graphics & Text | Print | Product List | Glossary On
Versions: 1 2 3 4 5 6 7 8 9 10 11 12 13 14 15 16 17 18 19 20 21 22 23 24 25 26 27
000
ASUS41 KAKQ 110815
RWRAKQ

REGIONAL WEATHER ROUNDUP
NATIONAL WEATHER SERVICE WAKEFIELD VA
300 AM EST SUN DEC 11 2016

Note: "fair" indicates few or no clouds below 12,000 feet with no
significant weather and/or obstructions to visibility. * = Denotes
station may not report precipitation (e.g., rain,snow,etc.),
thunder or fog.

VAZ042-051-052>054-056-110900-
NORTHERN VIRGINIA

CITY           SKY/WX    TMP DP  RH WIND       PRES   REMARKS
WASH NATIONAL  CLOUDY    30  14  51 N5        30.54R
DULLES         CLOUDY    24  17  74 CALM      30.52R
FORT BELVOIR   NOT AVBL
QUANTICO       CLOUDY    28  19  69 NW3       30.56S
FREDERICKSBRG* CLOUDY    27  21  78 CALM      30.54S
STAFFORD*      CLOUDY    24  20  85 CALM      30.58S
WARRENTON      CLOUDY    26  18  73 CALM      30.51F
CULPEPER*      CLOUDY    27  19  72 CALM      30.53S
MANASSAS*      NOT AVBL
LEESBURG*      CLOUDY    28  19  69 CALM      30.51F
WINCHESTER     CLOUDY    23  18  80 CALM      30.48F
FRONT ROYAL*   CLOUDY    25  19  80 CALM      30.48S
LURAY*         CLOUDY    27  23  86 CALM      30.46F
$$

VAZ048-049-060>072-079>083-110900-
CENTRAL AND SOUTH CENTRAL VIRGINIA

CITY           SKY/WX    TMP DP  RH WIND       PRES   REMARKS
RICHMOND       CLOUDY    28  16  60 CALM      30.54R
CHESTERFIELD*  FAIR      28   7  40 CALM      30.55R
PETERSBURG*    CLOUDY    25  21  87 CALM      30.54S
HANOVER        CLOUDY    27  18  69 CALM      30.55R
TAPPAHANNOCK*  CLOUDY    27  18  70 CALM      30.54S
QUINTON*       FAIR      27  21  77 CALM      30.54R
CHARLOTTSVILLE PTCLDY    28  16  60 CALM      30.51R
GORDONSVILLE*  FAIR      25  20  82 CALM      30.52R
ORANGE*          N/A     27  19  74 CALM      30.53R
LOUISA*        CLOUDY    28  21  74 CALM      30.51S
BUMPASS*       FAIR      25  18  74 CALM      30.53R
FARMVILLE*     CLOUDY    29  18  63 CALM      30.50R
CREWE*         FAIR      27  17  64 CALM      30.51S
FORT PICKETT*  FAIR      26  15  63 NE5       30.51S
CHASE CITY*    FAIR      27  19  72 CALM      30.50S
CLARKSVILLE*   FAIR      27  25  93 CALM      30.50S
SOUTH HILL*    CLOUDY    25  23  92 CALM      30.56S
LAWRENCEVILLE* FAIR      27  18  67 CALM      30.52S
EMPORIA*       CLOUDY    27  21  80 CALM      30.55R
$$

VAZ088>098-110900-
SOUTHEAST VIRGINIA

CITY           SKY/WX    TMP DP  RH WIND       PRES   REMARKS
NORFOLK        CLEAR     30  21  69 SW3       30.52R
VIRGINIA BEACH PTCLDY    27  20  75 SW5       30.51R
NORFOLK NAVAL  MOCLDY    29  23  78 CALM      30.54R
WEST POINT*    MOCLDY    28  19  69 CALM      30.56R
SALUDA*        FAIR      32  20  62 CALM      30.55R
NEWPORT NEWS   PTCLDY    25  20  81 CALM      30.54R
LANGLEY AFB    PTCLDY    27  22  84 NW3       30.52S
FORT EUSTIS    PTCLDY    29  18  64 CALM      30.51R
WILLIAMSBURG*  PTCLDY    30  23  74 CALM      30.55R
HR EXEC AP*    FAIR      19  16  86 W3        30.52S
FRANKLIN*      CLOUDY    24  21  90 CALM      30.55R
US460-WAKEFLD  PTCLDY    24  20  84 CALM      30.54R
$$

VAZ020-022-025-037-045-110900-
WEST CENTRAL AND SOUTHWEST VIRGINIA

CITY           SKY/WX    TMP DP  RH WIND       PRES   REMARKS
STAUNTON*      CLOUDY    24  16  73 CALM      30.46S
WAYNESBORO*    FAIR      24  14  65 SE3       30.43S
HOT SPRINGS VA CLOUDY    21   1  42 S10       30.25F WCI  10
LYNCHBURG      CLOUDY    28  18  66 N3        30.49R
DANVILLE       CLOUDY    25  21  85 CALM      30.48F
SOUTH BOSTON*  FAIR      24  21  89 CALM      30.50S
MARTINSVILLE   CLOUDY    22  18  84 CALM      30.48S
ROANOKE        CLOUDY    29  17  61 CALM      30.45S
BLACKSBURG     CLOUDY    28  16  60 E3        30.41R
DUBLIN*        CLOUDY    27  20  76 CALM      30.40R
MARION*        CLOUDY    24  14  65 CALM      30.37S
HILLSVILLE*    CLOUDY    28  12  51 S6        30.33S
RICHLANDS*     FAIR      28  12  52 S5        30.31S
WISE*          CLOUDY    28  10  47 SW5       30.31S
ABINGDON*      CLOUDY    27  16  61 E3        30.35F
$$

MDZ021>025-VAZ099-100-110900-
SOUTHERN MARYLAND AND THE DELMARVA PENINSULA

CITY           SKY/WX    TMP DP  RH WIND       PRES   REMARKS
PATUXENT RIVER CLOUDY    31  16  54 NW8       30.54R
BAY BRIDGE APT CLOUDY    30  18  59 MISG      30.54R
LEONARDTOWN    CLOUDY    28  18  64 CALM      30.55R
DOVER          MOCLDY    26  19  73 CALM      30.52R
GEORGETOWN     PTCLDY    24  17  74 CALM      30.54R
EASTON         CLOUDY    26  18  70 CALM      30.57R
CAMBRIDGE      CLOUDY    27  19  74 CALM      30.54R
SALISBURY      CLOUDY    25  19  78 CALM      30.53R
OCEAN CITY     CLOUDY    26  17  68 NW7       30.54R
WALLOPS ISLAND CLOUDY    27  19  72 NW3       30.53F
ACCOMACK*      CLOUDY    30  19  63 CALM      30.54R
$$

NCZ012>017-030>032-110900-
NORTH CENTRAL AND EASTERN NORTH CAROLINA

CITY           SKY/WX    TMP DP  RH WIND       PRES   REMARKS
ROANOKE RAPIDS FAIR      27  27 100 CALM      30.53S
RALEIGH        CLOUDY    25  19  78 NE3       30.51S
ELIZABETH CITY PTCLDY    25  20  81 W5        30.53R
AHOSKIE*         N/A     24  21  89 CALM      30.53F
EDENTON*       PTCLDY    27  24  88 CALM      30.54R
CURRITUCK*     PTCLDY    28  26  93 CALM      30.53R
KILL DEVIL HLS PTCLDY    35  26  71 CALM      30.49S
MANTEO         PTCLDY    30  21  69 N3        30.51S
CAPE HATTERAS  CLEAR     34  22  61 CALM      30.50F
TARBORO*       NOT AVBL
GOLDSBORO      CLEAR     26  22  86 CALM      30.49F
WASHINGTON     CLEAR     24  20  84 CALM      30.53R
GREENVILLE     CLOUDY    23  23 100 CALM      30.52S
NEW BERN       CLEAR     23  21  92 CALM      30.52F
WILMINGTON     CLEAR     25  23  92 CALM      30.51S
$$

VAZ048-110900-
ELSEWHERE

CITY           SKY/WX    TMP DP  RH WIND       PRES   REMARKS
HARRISBURG PA  CLOUDY    26  16  65 CALM      30.49S
BALTIMORE      CLOUDY    26  16  65 CALM      30.52R
ANNAPOLIS      CLOUDY    29  13  51 CALM      30.54R
ANDREWS AFB    CLOUDY    24  20  82 S1        30.51R
PHILADELPHIA   CLOUDY    29  15  56 NW3       30.52S
HENDERSON NC   CLOUDY    24  15  68 S3        30.50S
GREENSBORO     CLOUDY    28  17  63 CALM      30.45S
ROCKY MOUNT    CLEAR     22  20  92 CALM      30.53S
$$

VAZ100-110900-
MARINE

STATION/POSITION TIME  TEMP    WIND        PRES    WAVE   SWELL
                       AIR SEA DIR/SP/G            HT/PER HT/PER
                 (UTC) (F)     (DEG/KT/KT) (MB)    (FT/S) (FT/S)
BRANDYWINE LGT   0742   32     340/  8/ 12   N/A
CAPE MAY NJ      0742   32 41  350/  5/  9 1033.4R
LEWES DE         0742   31 43  290/  8/  9 1033.6F
OCEAN-CITY-INLET 0742   31 46  340/  6/  8 1034.0R
WACHAPREAGUE VA  0748   30 40   10/  2/  3 1033.7F
THOMAS POINT MD  0800   30 44  320/  7/  8   N/A
GOOSES REEF MD   0800   33 47  330/  6/ 10 1034.8    1/ 2
COVE POINT MD    0748   32     350/  6/ 11 1034.7R
SOLOMONS ISLAND  0742   31 47  320/  6/  8   N/A
BISHOPS HEAD MD  0748   30 36  320/  4/  5 1034.4R
PINEY POINT MD   0748           20/  5/  6   N/A
POTOMAC MD       0800   33 47  340/  8/ 10 1033.4    1
CAMBRIDGE MD     0748   32 42  340/  5/  6 1033.3R
LEWISETTA VA     0748   33 42  360/  5/  7 1034.0R
RAPPAHANNOCK LGT 0748           60/  7/  8 1034.9R
STINGRAY PT      0750   36      10/  2/  4 1034.8R
YORK RVR RNG VA  0748   36      30/  6/  8 1033.5R
YORKTOWN VA      0748   34 47   20/  4/  5 1033.6R
JAMESTOWN VA     0800   32 47  360/  2/  2   N/A     0
DOMINION TERM VA 0748   33      30/  5/  6 1033.7R
KIPTOPEKE VA     0736      47   60/  4/  6   N/A
CHES BAY BRIDGE  0736   37 49   50/  8/ 10 1033.4R
CAPE HENRY VA    0736   37      30/  7/ 10   N/A
WILLOUBY STN VA  0736   37      40/  5/  7 1034.3R
S CRANEY ISL VA  0736   37      60/  4/  5 1033.5R
CAPE HENRY BUOY  0742      52                N/A     2/ 4
1ST LANDING BUOY 0800   37 49              1033.5    2/ 3
CAPE CHARLES BUO 0756      51                N/A     2/ 4
OFFSHORE WE BUOY 0721      54                N/A     2/ 3
64NM E OF VA BCH 0750   41 58   10/ 10/ 14 1032.5F   2/ 5   2/ 5
DUCK PIER NC     0736   37 52  320/  8/ 10 1032.4R
44100 DUCK FRF   0735      54                N/A     2/ 5
OREGON INLET NC  0736   35 49  320/  4/  5 1032.8F
HATTERAS NC      0736   40 51   20/  6/  9 1032.4F
DIAMOND SHLS NC  0750   45 76   10/ 10/ 17 1032.6S   4/ 9   5/ 9
CAPE LOOKOUT NC  0800   38      10/  8/  9 1032.4F
$$




USA.gov is the U.S. government's official web portal to all federal, state and local government web resources and services.